Airfield :
LOGIN :

Register | Disclaimer

   EN    FR    IT 

 










Legend :    VFR   Marginal VFR   IFR   Intensive IFR   Very Intensive IFR
Visi :
Ceiling :
>= 8 km
>= 3000ft
5 to 8 km
1000 to 3000 ft
1500m to 5 km
500 to 1000 ft
800 to 1500m
200 to 500 ft
< 800m
< 200 ft
Symbols :   Thunderstorms  Fog  Heavy snow  Heavy precipitations  Wind > 20 kt
SIGMETs :     Misc.  Thunderstorms  Icing  Turbulence  Mountain Waves  Volcanic Ashes






- Airport Elevation : 388 ft
- IATA code : QYR


LFQB - Troyes Barberey

CURRENT METAR :
  • 021400Z AUTO 20003KT 150V230 CAVOK 18/04 Q1028

EXPIRED METARs :
  • 021330Z AUTO 18005KT 100V220 CAVOK 18/05 Q1028
  • 021300Z AUTO 16004KT 120V190 CAVOK 18/03 Q1028
  • 021230Z AUTO 14005KT 110V200 CAVOK 17/04 Q1028
  • 021200Z AUTO VRB03KT CAVOK 17/03 Q1029
  • 021130Z AUTO 15004KT 110V180 CAVOK 16/05 Q1029

TAF N/A



MET'MAP, your aeronautical weather chart ! - Copyright ORBIFLY December 2007 - Disclaimer

ORBIFLY MET'MAP TEAM :

Programming & Development : Alexandra Zaïnal
Concept & original design : Baudouin d'Aumeries
Assistance for programming : Marc-Olivier Méhu
Technical & hardware support : Manuel Goepfert

Contact : metmap@orbifly.com




SOURCES & CREDITS :

   NOAA